Location: Gradaro
(45.0833°N, 10.8833°E)
Time: 14:42:47
(UTC+00:00)

Cosmos 1500 Rocket - Pass Details

Date: 29 November 2020
Orbit: 603 x 631 km, 82.5° (Epoch: 24 January)

Event Time Altitude Azimuth Distance (km) Brightness Sun altitude
Rises 04:29:36 0° 175° (S) 2,842 7.1 -21.1°
Reaches altitude 10° 04:31:50 10° 171° (S) 1,944 6.3 -20.8°
Maximum altitude 04:36:01 54° 94° (E) 737 4.2 -20.0°
Drops below altitude 10° 04:40:16 10° 17° (NNE) 1,967 6.2 -19.3°
Sets 04:42:31 0° 13° (NNE) 2,879 7.0 -18.9°
